Find Kosmos-2587

NORAD ID: 63290 Int'l Des: 2025-054 Owner: VVKOV Country: RU operational
LEOCIRCULARPOLAR

リアルタイム位置

3D地球を読み込み中...

Kosmos-2587について

説明を読み込み中...

次回通過

Passes for default location (London). Set your location on the main map for personalized predictions.

高度履歴

Loading altitude history...

軌道要素

1 63290U 25054C 26104.49391191 .00000058 00000-0 35008-3 0 9998
2 63290 82.4933 118.3409 0015565 146.5223 213.6844 12.42890198 48949
Epoch: Apr 14, 2026 • Age: 12 hours

現在のステータス

高度 1485.8 km
速度 7.13 km/s
衛星直下点 30.27°N, 86.75°E
打ち上げ日 Mar 16, 2025
運用期間 1 years
タイプ other

技術仕様

分類 Payload
質量 280.00 kg
乾燥質量 280.00 kg
総質量 280.00 kg
長さ 1.60 m
直径 0.80 m
スパン 7.00 m
形状 Cyl + Ant
製造者 RESH
バスタイプ Strela-3M
フェーズステータス In Orbit
所有者/国 VVKOV/RU

Most Searched